Weather History for Hutchinson, KS

Change the Weather History Date:

Sunday, December 16, 2012

  Actual Average Record
Temperature  
Mean Temperature 38 °F -  
Max Temperature 46 °F 41 °F 64 °F (2002)
Min Temperature 30 °F 19 °F 3 °F (2007)
Degree Days  
Heating Degree Days 27    
Moisture  
Dew Point 31 °F    
Average Humidity 86    
Maximum Humidity 96    
Minimum Humidity 52    
Precipitation  
Precipitation 0.00 in - - ()
Sea Level Pressure  
Sea Level Pressure 29.75 in    
Wind  
Wind Speed 6 mph (NNE)    
Max Wind Speed 12 mph    
Max Gust Speed -    
Visibility 4 miles    
Events Fog    
Averages and records for this station are not official NWS values.
T = Trace of Precipitation, MM = Missing Value Source: NWS Daily Summary

Daily Weather History Graph

Daily Weather History Graph

Search for Another Location

Airport:

Trip Planner

Search our weather history database for the weather conditions in past years. The results will help you decide how hot, cold, wet, or windy it might be!

Date:

Astronomy

Dec. 16, 2012 Rise Set
Actual Time 7:41 AM CST 5:13 PM CST
Civil Twilight 7:11 AM CST 5:42 PM CST
Nautical Twilight 6:38 AM CST 6:15 PM CST
Astronomical Twilight 6:06 AM CST 6:48 PM CST
Moon 10:18 AM CST (12/16) 9:25 PM CST (12/16)
Length of Visible Light 10h 30m
Length of Day
9h 31m
Waxing Crescent, 16% of the Moon is Illuminated
Dec 16
Waxing Crescent
Dec 19
First Quarter
Dec 28
Full
Jan 4
Last Quarter
Jan 11
New

Hourly Weather History & Observations

Time (CST) Temp. Windchill Dew Point Humidity Pressure Visibility Wind Dir Wind Speed Gust Speed Precip Events Conditions
12:52 AM 39.9 °F 37.8 °F 36.0 °F 86% 29.70 in 10.0 mi Variable 3.5 mph - N/A   Clear
1:52 AM 37.9 °F 33.5 °F 35.1 °F 89% 29.70 in 6.0 mi NNE 5.8 mph - N/A   Clear
2:52 AM 37.0 °F 29.3 °F 34.0 °F 89% 29.71 in 6.0 mi NNE 11.5 mph - N/A   Clear
3:52 AM 36.0 °F 33.3 °F 34.0 °F 93% 29.71 in 4.0 mi Variable 3.5 mph - N/A   Clear
3:59 AM 35.6 °F - 33.8 °F 93% 29.73 in 3.0 mi Calm Calm - N/A   Partly Cloudy
4:14 AM 35.6 °F 30.7 °F 33.8 °F 93% 29.73 in 2.5 mi NNE 5.8 mph - N/A   Mostly Cloudy
4:25 AM 35.6 °F 32.8 °F 33.8 °F 93% 29.72 in 1.0 mi Variable 3.5 mph - N/A   Mostly Cloudy
4:45 AM 35.6 °F - 33.8 °F 93% 29.73 in 0.5 mi Calm Calm - N/A Fog Fog
5:21 AM 33.8 °F 29.6 °F 32.0 °F 93% 29.73 in 0.2 mi NNE 4.6 mph - N/A Fog Fog
5:36 AM 33.8 °F 28.6 °F 32.0 °F 93% 29.73 in 0.5 mi NNE 5.8 mph - N/A Fog Fog
5:52 AM 33.1 °F 26.1 °F 30.9 °F 92% 29.72 in 0.5 mi NNE 8.1 mph - N/A Fog Fog
5:57 AM 32.0 °F 24.2 °F 30.2 °F 93% 29.73 in 0.2 mi North 9.2 mph - N/A Fog Fog
6:04 AM 32.0 °F 24.2 °F 30.2 °F 93% 29.73 in 0.2 mi North 9.2 mph - N/A Fog Fog
6:17 AM 33.8 °F 25.8 °F 30.2 °F 87% 29.74 in 0.2 mi North 10.4 mph - N/A Fog Fog
6:30 AM 33.8 °F 25.8 °F 30.2 °F 87% 29.73 in 0.5 mi NNE 10.4 mph - N/A Fog Fog
6:52 AM 33.1 °F 27.7 °F 30.9 °F 92% 29.75 in 1.0 mi NNE 5.8 mph - N/A   Overcast
7:10 AM 32.0 °F 26.4 °F 30.2 °F 93% 29.74 in 0.5 mi NNE 5.8 mph - N/A Fog Fog
7:36 AM 32.0 °F 25.6 °F 30.2 °F 93% 29.74 in 2.0 mi NNE 6.9 mph - N/A   Overcast
7:52 AM 30.9 °F 24.3 °F 30.0 °F 96% 29.75 in 1.2 mi NNE 6.9 mph - N/A   Overcast
8:35 AM 30.2 °F 21.3 °F 28.4 °F 93% 29.75 in 0.5 mi NNE 10.4 mph - N/A Fog Light Freezing Fog
8:52 AM 30.9 °F 22.2 °F 30.0 °F 96% 29.77 in 0.2 mi NNE 10.4 mph - N/A Fog Light Freezing Fog
9:20 AM 32.0 °F 23.0 °F 30.2 °F 93% 29.76 in 0.5 mi NNE 11.5 mph - N/A Fog Fog
9:35 AM 32.0 °F 24.2 °F 30.2 °F 93% 29.77 in 1.8 mi NE 9.2 mph - N/A   Overcast
9:52 AM 32.0 °F 24.2 °F 30.0 °F 92% 29.79 in 1.2 mi North 9.2 mph - N/A   Overcast
10:08 AM 32.0 °F 24.2 °F 30.2 °F 93% 29.78 in 2.5 mi NNE 9.2 mph - N/A   Mostly Cloudy
10:17 AM 33.8 °F 25.8 °F 30.2 °F 87% 29.77 in 4.0 mi NNE 10.4 mph - N/A   Mostly Cloudy
10:25 AM 33.8 °F 25.8 °F 32.0 °F 93% 29.77 in 4.0 mi North 10.4 mph - N/A   Scattered Clouds
10:52 AM 35.1 °F 28.6 °F 30.9 °F 85% 29.77 in 6.0 mi North 8.1 mph - N/A   Partly Cloudy
11:52 AM 37.9 °F 30.9 °F 32.0 °F 79% 29.74 in 6.0 mi NNW 10.4 mph - N/A   Haze
12:52 PM 39.9 °F 33.4 °F 32.0 °F 73% 29.71 in 7.0 mi North 10.4 mph - N/A   Mostly Cloudy
1:52 PM 46.0 °F 40.6 °F 30.9 °F 56% 29.67 in 10.0 mi North 11.5 mph - N/A   Clear
2:52 PM 46.9 °F - 30.0 °F 52% 29.70 in 10.0 mi North 11.5 mph - N/A   Clear
3:52 PM 46.0 °F 44.8 °F 30.0 °F 54% 29.73 in 10.0 mi NNW 3.5 mph - N/A   Clear
4:52 PM 42.1 °F 38.4 °F 28.9 °F 60% 29.75 in 10.0 mi North 5.8 mph - N/A   Clear
5:52 PM 39.9 °F 35.1 °F 28.0 °F 63% 29.76 in 10.0 mi North 6.9 mph - N/A   Clear
6:52 PM 37.9 °F 32.7 °F 28.0 °F 68% 29.76 in 10.0 mi North 6.9 mph - N/A   Clear
7:52 PM 36.0 °F 32.1 °F 28.0 °F 73% 29.80 in 9.0 mi North 4.6 mph - N/A   Clear
8:52 PM 33.1 °F 28.7 °F 28.0 °F 82% 29.82 in 7.0 mi NE 4.6 mph - N/A   Mostly Cloudy
9:52 PM 30.9 °F - 28.0 °F 89% 29.82 in 4.0 mi Calm Calm - N/A   Overcast
9:59 PM 30.2 °F - 28.4 °F 93% 29.81 in 3.0 mi Calm Calm - N/A   Overcast
10:07 PM 30.2 °F - 28.4 °F 93% 29.81 in 3.0 mi Calm Calm - N/A   Overcast
10:09 PM 30.2 °F - 28.4 °F 93% 29.81 in 3.0 mi Calm Calm - N/A   Overcast
10:48 PM 32.0 °F - 28.4 °F 87% 29.82 in 3.0 mi Calm Calm - N/A   Overcast
10:52 PM 32.0 °F - 28.9 °F 88% 29.84 in 3.0 mi Calm Calm - N/A   Overcast
11:52 PM 32.0 °F 28.7 °F 28.9 °F 88% 29.83 in 4.0 mi NW 3.5 mph - N/A   Overcast